Weather History for Brookings, OR

Change the Weather History Date:

Tuesday, November 13, 2012

  Actual Average Record
Temperature  
Mean Temperature 50 °F -  
Max Temperature 55 °F 58 °F 76 °F (1933)
Min Temperature 46 °F 43 °F 30 °F (1978)
Degree Days  
Heating Degree Days 14    
Moisture  
Dew Point 52 °F    
Average Humidity 98    
Maximum Humidity 100    
Minimum Humidity 87    
Precipitation  
Precipitation 0.00 in - - ()
Sea Level Pressure  
Sea Level Pressure 30.21 in    
Wind  
Wind Speed 2 mph (SE)    
Max Wind Speed 7 mph    
Max Gust Speed -    
Visibility 10 miles    
Events      
Averages and records for this station are not official NWS values.
T = Trace of Precipitation, MM = Missing Value Source: NWS Daily Summary

Daily Weather History Graph

Daily Weather History Graph

Search for Another Location

Airport:

Trip Planner

Search our weather history database for the weather conditions in past years. The results will help you decide how hot, cold, wet, or windy it might be!

Date:

Astronomy

Nov. 13, 2012 Rise Set
Actual Time 7:05 AM PST 4:57 PM PST
Civil Twilight 6:35 AM PST 5:27 PM PST
Nautical Twilight 6:01 AM PST 6:00 PM PST
Astronomical Twilight 5:28 AM PST 6:33 PM PST
Moon 6:50 AM PST (11/13) 4:54 PM PST (11/13)
Length of Visible Light 10h 51m
Length of Day
9h 51m
Waning Crescent, 0% of the Moon is Illuminated
Nov 13
Waning Crescent
Nov 13
New
Nov 20
First Quarter
Nov 28
Full
Dec 6
Last Quarter

Hourly Weather History & Observations

Time (PST) Temp. Dew Point Humidity Pressure Visibility Wind Dir Wind Speed Gust Speed Precip Events Conditions
12:56 AM 52.9 °F 52.9 °F 100% 30.25 in 10.0 mi ESE 3.5 mph - N/A   Overcast
1:56 AM 52.9 °F 52.9 °F 100% 30.24 in 10.0 mi Variable 3.5 mph - N/A   Overcast
2:56 AM 52.0 °F 52.0 °F 100% 30.23 in 10.0 mi ESE 3.5 mph - N/A   Overcast
3:43 AM 51.8 °F 51.8 °F 100% 30.22 in 10.0 mi Calm Calm - N/A   Overcast
3:56 AM 52.0 °F 52.0 °F 100% 30.22 in 10.0 mi SE 3.5 mph - N/A   Overcast
4:56 AM 52.0 °F 52.0 °F 100% 30.22 in 10.0 mi Calm Calm - N/A   Overcast
5:21 AM 51.8 °F 51.8 °F 100% 30.21 in 10.0 mi Calm Calm - N/A   Overcast
5:47 AM 51.8 °F 51.8 °F 100% 30.21 in 10.0 mi Calm Calm - N/A   Overcast
5:56 AM 50.9 °F 50.9 °F 100% 30.22 in 7.0 mi East 3.5 mph - N/A   Overcast
6:41 AM 51.8 °F 51.8 °F 100% 30.21 in 10.0 mi Calm Calm - N/A   Overcast
6:56 AM 50.9 °F 50.9 °F 100% 30.22 in 10.0 mi Calm Calm - N/A   Overcast
7:08 AM 51.8 °F 51.8 °F 100% 30.22 in 10.0 mi Calm Calm - N/A   Overcast
7:16 AM 51.8 °F 51.8 °F 100% 30.22 in 10.0 mi Calm Calm - N/A   Overcast
7:40 AM 51.8 °F 51.8 °F 100% 30.22 in 10.0 mi Calm Calm - N/A   Overcast
7:56 AM 50.9 °F 50.9 °F 100% 30.23 in 10.0 mi Calm Calm - N/A   Overcast
8:56 AM 52.9 °F 52.9 °F 100% 30.22 in 10.0 mi ESE 4.6 mph - N/A   Mostly Cloudy
9:12 AM 53.6 °F 53.6 °F 100% 30.22 in 10.0 mi Variable 4.6 mph - N/A   Overcast
9:56 AM 52.9 °F 52.9 °F 100% 30.24 in 10.0 mi SSE 5.8 mph - N/A   Overcast
10:56 AM 54.9 °F 54.9 °F 100% 30.23 in 10.0 mi South 6.9 mph - N/A   Mostly Cloudy
11:02 AM 55.4 °F 55.4 °F 100% 30.23 in 10.0 mi Variable 4.6 mph - N/A   Scattered Clouds
11:21 AM 55.4 °F 55.4 °F 100% 30.22 in 10.0 mi South 6.9 mph - N/A   Mostly Cloudy
11:34 AM 55.4 °F 55.4 °F 100% 30.22 in 10.0 mi SSW 5.8 mph - N/A   Scattered Clouds
11:41 AM 55.4 °F 55.4 °F 100% 30.22 in 10.0 mi Variable 4.6 mph - N/A   Mostly Cloudy
11:56 AM 55.9 °F 54.9 °F 96% 30.22 in 10.0 mi South 5.8 mph - N/A   Scattered Clouds
12:29 PM 55.4 °F 53.6 °F 94% 30.20 in 10.0 mi Variable 4.6 mph - N/A   Mostly Cloudy
12:44 PM 55.4 °F 53.6 °F 94% 30.20 in 10.0 mi South 5.8 mph - N/A   Scattered Clouds
12:56 PM 54.9 °F 54.0 °F 97% 30.20 in 10.0 mi SSE 4.6 mph - N/A   Partly Cloudy
1:29 PM 55.4 °F 53.6 °F 94% 30.18 in 10.0 mi Calm Calm - N/A   Mostly Cloudy
1:36 PM 55.4 °F 53.6 °F 94% 30.18 in 10.0 mi Calm Calm - N/A   Scattered Clouds
1:56 PM 55.9 °F 52.9 °F 89% 30.17 in 10.0 mi Calm Calm - N/A   Partly Cloudy
2:56 PM 55.9 °F 52.0 °F 87% 30.17 in 10.0 mi Calm Calm - N/A   Scattered Clouds
3:56 PM 55.9 °F 54.0 °F 93% 30.17 in 10.0 mi Calm Calm - N/A   Clear
4:56 PM 52.9 °F 52.9 °F 100% 30.17 in 9.0 mi Calm Calm - N/A   Partly Cloudy
5:56 PM 50.9 °F 50.9 °F 100% 30.18 in 9.0 mi Calm Calm - N/A   Mostly Cloudy
6:56 PM 50.0 °F 50.0 °F 100% 30.18 in 9.0 mi SE 3.5 mph - N/A   Mostly Cloudy
7:27 PM 50.0 °F 50.0 °F 100% 30.18 in 10.0 mi NE 3.5 mph - N/A   Scattered Clouds
7:56 PM 48.9 °F 48.9 °F 100% 30.19 in 10.0 mi Calm Calm - N/A   Clear
8:56 PM 48.9 °F 48.9 °F 100% 30.19 in 10.0 mi Calm Calm - N/A   Clear
9:56 PM 46.9 °F 46.9 °F 100% 30.19 in 8.0 mi Calm Calm - N/A   Clear
10:56 PM 46.9 °F 46.9 °F 100% 30.19 in 8.0 mi Calm Calm - N/A   Clear
11:56 PM 46.9 °F 46.9 °F 100% 30.19 in 7.0 mi ESE 4.6 mph - N/A   Clear